Year,Month,Day,Hour,Minute,Value (Times are PST for temperature in C)
2011,08,21,00,00,15.90
2011,08,21,00,01,15.90
2011,08,21,00,02,15.90
2011,08,21,00,03,15.80
2011,08,21,00,04,15.90
2011,08,21,00,05,15.90
2011,08,21,00,06,15.90
2011,08,21,00,07,15.90
2011,08,21,00,08,15.90
2011,08,21,00,09,15.90
2011,08,21,00,10,15.90
2011,08,21,00,11,15.80
2011,08,21,00,12,15.80
2011,08,21,00,13,15.80
2011,08,21,00,14,15.70
2011,08,21,00,15,15.80
2011,08,21,00,16,15.80
2011,08,21,00,17,15.80
2011,08,21,00,18,15.80
2011,08,21,00,19,15.80
2011,08,21,00,20,15.90
2011,08,21,00,21,15.90
2011,08,21,00,22,16.00
2011,08,21,00,23,16.10
2011,08,21,00,24,16.10
2011,08,21,00,25,16.10
2011,08,21,00,26,16.20
2011,08,21,00,27,16.20
2011,08,21,00,28,16.20
2011,08,21,00,29,16.30
2011,08,21,00,30,16.30
2011,08,21,00,31,16.30
2011,08,21,00,32,16.40
2011,08,21,00,33,16.40
2011,08,21,00,34,16.40
2011,08,21,00,35,16.40
2011,08,21,00,36,16.40
2011,08,21,00,37,16.40
2011,08,21,00,38,16.40
2011,08,21,00,39,16.40
2011,08,21,00,40,16.30
2011,08,21,00,41,16.30
2011,08,21,00,42,16.30
2011,08,21,00,43,16.30
2011,08,21,00,44,16.30
2011,08,21,00,45,16.40
2011,08,21,00,46,16.50
2011,08,21,00,47,16.60
2011,08,21,00,48,16.70
2011,08,21,00,49,16.80
2011,08,21,00,50,16.90
2011,08,21,00,51,16.90
2011,08,21,00,52,16.90
2011,08,21,00,53,16.80
2011,08,21,00,54,16.70
2011,08,21,00,55,16.60
2011,08,21,00,56,16.60
2011,08,21,00,57,16.50
2011,08,21,00,58,16.40
2011,08,21,00,59,16.40
2011,08,21,01,00,16.40
2011,08,21,01,01,16.30
2011,08,21,01,02,16.30
2011,08,21,01,03,16.30
2011,08,21,01,04,16.20
2011,08,21,01,05,16.20
2011,08,21,01,06,16.20
2011,08,21,01,07,16.20
2011,08,21,01,08,16.20
2011,08,21,01,09,16.10
2011,08,21,01,10,16.10
2011,08,21,01,11,16.00
2011,08,21,01,12,15.90
2011,08,21,01,13,15.80
2011,08,21,01,14,15.70
2011,08,21,01,15,15.60
2011,08,21,01,16,15.50
2011,08,21,01,17,15.50
2011,08,21,01,18,15.50
2011,08,21,01,19,15.40
2011,08,21,01,20,15.50
2011,08,21,01,21,15.50
2011,08,21,01,22,15.50
2011,08,21,01,23,15.50
2011,08,21,01,24,15.40
2011,08,21,01,25,15.30
2011,08,21,01,26,15.30
2011,08,21,01,27,15.30
2011,08,21,01,28,15.30
2011,08,21,01,29,15.20
2011,08,21,01,30,15.10
2011,08,21,01,31,15.10
2011,08,21,01,32,15.00
2011,08,21,01,33,15.00
2011,08,21,01,34,15.00
2011,08,21,01,35,15.00
2011,08,21,01,36,15.00
2011,08,21,01,37,15.00
2011,08,21,01,38,15.00
2011,08,21,01,39,15.00
2011,08,21,01,40,15.10
2011,08,21,01,41,15.20
2011,08,21,01,42,15.20
2011,08,21,01,43,15.20
2011,08,21,01,44,15.20
2011,08,21,01,45,15.10
2011,08,21,01,46,15.10
2011,08,21,01,47,15.10
2011,08,21,01,48,15.10
2011,08,21,01,49,15.20
2011,08,21,01,50,15.20
2011,08,21,01,51,15.20
2011,08,21,01,52,15.20
2011,08,21,01,53,15.20
2011,08,21,01,54,15.20
2011,08,21,01,55,15.20
2011,08,21,01,56,15.30
2011,08,21,01,57,15.30
2011,08,21,01,58,15.30
2011,08,21,01,59,15.30
2011,08,21,02,00,15.30
2011,08,21,02,01,15.30
2011,08,21,02,02,15.20
2011,08,21,02,03,15.20
2011,08,21,02,04,15.20
2011,08,21,02,05,15.10
2011,08,21,02,06,15.10
2011,08,21,02,07,15.10
2011,08,21,02,08,15.00
2011,08,21,02,09,15.10
2011,08,21,02,10,15.10
2011,08,21,02,11,15.10
2011,08,21,02,12,15.10
2011,08,21,02,13,15.20
2011,08,21,02,14,15.20
2011,08,21,02,15,15.20
2011,08,21,02,16,15.20
2011,08,21,02,17,15.20
2011,08,21,02,18,15.20
2011,08,21,02,19,15.20
2011,08,21,02,20,15.20
2011,08,21,02,21,15.20
2011,08,21,02,22,15.20
2011,08,21,02,23,15.20
2011,08,21,02,24,15.10
2011,08,21,02,25,15.10
2011,08,21,02,26,15.00
2011,08,21,02,27,15.00
2011,08,21,02,28,15.00
2011,08,21,02,29,15.00
2011,08,21,02,30,15.00
2011,08,21,02,31,15.00
2011,08,21,02,32,15.00
2011,08,21,02,33,15.00
2011,08,21,02,34,15.00
2011,08,21,02,35,15.00
2011,08,21,02,36,15.00
2011,08,21,02,37,15.00
2011,08,21,02,38,15.00
2011,08,21,02,39,14.90
2011,08,21,02,40,14.90
2011,08,21,02,41,14.80
2011,08,21,02,42,14.80
2011,08,21,02,43,14.80
2011,08,21,02,44,14.80
2011,08,21,02,45,14.90
2011,08,21,02,46,14.90
2011,08,21,02,47,15.00
2011,08,21,02,48,15.00
2011,08,21,02,49,15.00
2011,08,21,02,50,15.00
2011,08,21,02,51,15.10
2011,08,21,02,52,15.20
2011,08,21,02,53,15.20
2011,08,21,02,54,15.30
2011,08,21,02,55,15.30
2011,08,21,02,56,15.40
2011,08,21,02,57,15.40
2011,08,21,02,58,15.40
2011,08,21,02,59,15.40
2011,08,21,03,00,15.40
2011,08,21,03,01,15.30
2011,08,21,03,02,15.20
2011,08,21,03,03,15.20
2011,08,21,03,04,15.20
2011,08,21,03,05,15.20
2011,08,21,03,06,15.20
2011,08,21,03,07,15.20
2011,08,21,03,08,15.20
2011,08,21,03,09,15.20
2011,08,21,03,10,15.20
2011,08,21,03,11,15.10
2011,08,21,03,12,15.10
2011,08,21,03,13,15.20
2011,08,21,03,14,15.20
2011,08,21,03,15,15.30
2011,08,21,03,16,15.30
2011,08,21,03,17,15.30
2011,08,21,03,18,15.30
2011,08,21,03,19,15.20
2011,08,21,03,20,15.20
2011,08,21,03,21,15.20
2011,08,21,03,22,15.30
2011,08,21,03,23,15.30
2011,08,21,03,24,15.30
2011,08,21,03,25,15.30
2011,08,21,03,26,15.40
2011,08,21,03,27,15.40
2011,08,21,03,28,15.40
2011,08,21,03,29,15.40
2011,08,21,03,30,15.40
2011,08,21,03,31,15.30
2011,08,21,03,32,15.30
2011,08,21,03,33,15.30
2011,08,21,03,34,15.40
2011,08,21,03,35,15.40
2011,08,21,03,36,15.40
2011,08,21,03,37,15.50
2011,08,21,03,38,15.50
2011,08,21,03,39,15.50
2011,08,21,03,40,15.60
2011,08,21,03,41,15.60
2011,08,21,03,42,15.70
2011,08,21,03,43,15.80
2011,08,21,03,44,15.90
2011,08,21,03,45,16.00
2011,08,21,03,46,16.10
2011,08,21,03,47,16.10
2011,08,21,03,48,16.10
2011,08,21,03,49,16.10
2011,08,21,03,50,16.10
2011,08,21,03,51,16.00
2011,08,21,03,52,16.00
2011,08,21,03,53,15.90
2011,08,21,03,54,15.90
2011,08,21,03,55,15.80
2011,08,21,03,56,15.80
2011,08,21,03,57,15.70
2011,08,21,03,58,15.70
2011,08,21,03,59,15.70
2011,08,21,04,00,15.60
2011,08,21,04,01,15.50
2011,08,21,04,02,15.40
2011,08,21,04,03,15.40
2011,08,21,04,04,15.50
2011,08,21,04,05,15.50
2011,08,21,04,06,15.50
2011,08,21,04,07,15.40
2011,08,21,04,08,15.40
2011,08,21,04,09,15.40
2011,08,21,04,10,15.40
2011,08,21,04,11,15.40
2011,08,21,04,12,15.30
2011,08,21,04,13,15.40
2011,08,21,04,14,15.50
2011,08,21,04,15,15.50
2011,08,21,04,16,15.60
2011,08,21,04,17,15.60
2011,08,21,04,18,15.60
2011,08,21,04,19,15.70
2011,08,21,04,20,15.70
2011,08,21,04,21,15.80
2011,08,21,04,22,15.80
2011,08,21,04,23,15.80
2011,08,21,04,24,15.80
2011,08,21,04,25,15.90
2011,08,21,04,26,16.00
2011,08,21,04,27,16.10
2011,08,21,04,28,16.20
2011,08,21,04,29,16.20
2011,08,21,04,30,16.30
2011,08,21,04,31,16.40
2011,08,21,04,32,16.50
2011,08,21,04,33,16.50
2011,08,21,04,34,16.60
2011,08,21,04,35,16.60
2011,08,21,04,36,16.70
2011,08,21,04,37,16.70
2011,08,21,04,38,16.70
2011,08,21,04,39,16.60
2011,08,21,04,40,16.60
2011,08,21,04,41,16.50
2011,08,21,04,42,16.40
2011,08,21,04,43,16.40
2011,08,21,04,44,16.40
2011,08,21,04,45,16.30
2011,08,21,04,46,16.20
2011,08,21,04,47,16.10
2011,08,21,04,48,16.10
2011,08,21,04,49,16.00
2011,08,21,04,50,15.90
2011,08,21,04,51,15.80
2011,08,21,04,52,15.80
2011,08,21,04,53,15.80
2011,08,21,04,54,15.80
2011,08,21,04,55,15.70
2011,08,21,04,56,15.70
2011,08,21,04,57,15.70
2011,08,21,04,58,15.70
2011,08,21,04,59,15.70
2011,08,21,05,00,15.70
2011,08,21,05,01,15.70
2011,08,21,05,02,15.70
2011,08,21,05,03,15.70
2011,08,21,05,04,15.60
2011,08,21,05,05,15.60
2011,08,21,05,06,15.60
2011,08,21,05,07,15.60
2011,08,21,05,08,15.50
2011,08,21,05,09,15.50
2011,08,21,05,10,15.50
2011,08,21,05,11,15.60
2011,08,21,05,12,15.60
2011,08,21,05,13,15.60
2011,08,21,05,14,15.60
2011,08,21,05,15,15.60
2011,08,21,05,16,15.60
2011,08,21,05,17,15.60
2011,08,21,05,18,15.60
2011,08,21,05,19,15.70
2011,08,21,05,20,15.70
2011,08,21,05,21,15.80
2011,08,21,05,22,15.80
2011,08,21,05,23,15.80
2011,08,21,05,24,15.90
2011,08,21,05,25,15.90
2011,08,21,05,26,15.90
2011,08,21,05,27,16.00
2011,08,21,05,28,16.00
2011,08,21,05,29,16.10
2011,08,21,05,30,16.10
2011,08,21,05,31,16.20
2011,08,21,05,32,16.20
2011,08,21,05,33,16.30
2011,08,21,05,34,16.30
2011,08,21,05,35,16.30
2011,08,21,05,36,16.30
2011,08,21,05,37,16.30
2011,08,21,05,38,16.40
2011,08,21,05,39,16.40
2011,08,21,05,40,16.60
2011,08,21,05,41,16.70
2011,08,21,05,42,16.80
2011,08,21,05,43,16.70
2011,08,21,05,44,16.70
2011,08,21,05,45,16.70
2011,08,21,05,46,16.70
2011,08,21,05,47,16.60
2011,08,21,05,48,16.60
2011,08,21,05,49,16.50
2011,08,21,05,50,16.40
2011,08,21,05,51,16.30
2011,08,21,05,52,16.30
2011,08,21,05,53,16.20
2011,08,21,05,54,16.10
2011,08,21,05,55,16.00
2011,08,21,05,56,15.90
2011,08,21,05,57,15.80
2011,08,21,05,58,15.80
2011,08,21,05,59,15.70
2011,08,21,06,00,15.80
2011,08,21,06,01,15.80
2011,08,21,06,02,15.80
2011,08,21,06,03,15.80
2011,08,21,06,04,15.80
2011,08,21,06,05,15.90
2011,08,21,06,06,15.90
2011,08,21,06,07,15.90
2011,08,21,06,08,15.90
2011,08,21,06,09,15.90
2011,08,21,06,10,15.80
2011,08,21,06,11,15.80
2011,08,21,06,12,15.80
2011,08,21,06,13,15.80
2011,08,21,06,14,15.80
2011,08,21,06,15,15.90
2011,08,21,06,16,15.90
2011,08,21,06,17,15.90
2011,08,21,06,18,16.00
2011,08,21,06,19,16.00
2011,08,21,06,20,16.00
2011,08,21,06,21,16.00
2011,08,21,06,22,16.00
2011,08,21,06,23,16.00
2011,08,21,06,24,16.10
2011,08,21,06,25,16.10
2011,08,21,06,26,16.10
2011,08,21,06,27,16.10
2011,08,21,06,28,16.20
2011,08,21,06,29,16.30
2011,08,21,06,30,16.40
2011,08,21,06,31,16.40
2011,08,21,06,32,16.40
2011,08,21,06,33,16.50
2011,08,21,06,34,16.60
2011,08,21,06,35,16.70
2011,08,21,06,36,16.80
2011,08,21,06,37,16.90
2011,08,21,06,38,16.90
2011,08,21,06,39,16.90
2011,08,21,06,40,16.90
2011,08,21,06,41,16.90
2011,08,21,06,42,16.80
2011,08,21,06,43,16.90
2011,08,21,06,44,16.90
2011,08,21,06,45,16.90
2011,08,21,06,46,17.00
2011,08,21,06,47,17.00
2011,08,21,06,48,17.10
2011,08,21,06,49,17.10
2011,08,21,06,50,17.10
2011,08,21,06,51,17.10
2011,08,21,06,52,17.10
2011,08,21,06,53,17.20
2011,08,21,06,54,17.20
2011,08,21,06,55,17.20
2011,08,21,06,56,17.20
2011,08,21,06,57,17.20
2011,08,21,06,58,17.20
2011,08,21,06,59,17.20
2011,08,21,07,00,17.30
2011,08,21,07,01,17.30
2011,08,21,07,02,17.30
2011,08,21,07,03,17.30
2011,08,21,07,04,17.30
2011,08,21,07,05,17.30
2011,08,21,07,06,17.20
2011,08,21,07,07,17.20
2011,08,21,07,08,17.20
2011,08,21,07,09,17.20
2011,08,21,07,10,17.10
2011,08,21,07,11,17.10
2011,08,21,07,12,17.20
2011,08,21,07,13,17.20
2011,08,21,07,14,17.10
2011,08,21,07,15,17.00
2011,08,21,07,16,16.90
2011,08,21,07,17,16.80
2011,08,21,07,18,16.80
2011,08,21,07,19,16.80
2011,08,21,07,20,16.80
2011,08,21,07,21,16.80
2011,08,21,07,22,16.70
2011,08,21,07,23,16.70
2011,08,21,07,24,16.70
2011,08,21,07,25,16.70
2011,08,21,07,26,16.60
2011,08,21,07,27,16.60
2011,08,21,07,28,16.60
2011,08,21,07,29,16.70
2011,08,21,07,30,16.70
2011,08,21,07,31,16.70
2011,08,21,07,32,16.70
2011,08,21,07,33,16.80
2011,08,21,07,34,16.80
2011,08,21,07,35,16.80
2011,08,21,07,36,16.80
2011,08,21,07,37,16.80
2011,08,21,07,38,16.80
2011,08,21,07,39,16.80
2011,08,21,07,40,16.80
2011,08,21,07,41,16.80
2011,08,21,07,42,16.80
2011,08,21,07,43,16.80
2011,08,21,07,44,16.80
2011,08,21,07,45,16.80
2011,08,21,07,46,16.90
2011,08,21,07,47,16.90
2011,08,21,07,48,16.90
2011,08,21,07,49,16.90
2011,08,21,07,50,17.00
2011,08,21,07,51,17.00
2011,08,21,07,52,17.10
2011,08,21,07,53,17.10
2011,08,21,07,54,17.10
2011,08,21,07,55,17.20
2011,08,21,07,56,17.30
2011,08,21,07,57,17.30
2011,08,21,07,58,17.30
2011,08,21,07,59,17.40
2011,08,21,08,00,17.40
2011,08,21,08,01,17.50
2011,08,21,08,02,17.60
2011,08,21,08,03,17.60
2011,08,21,08,04,17.70
2011,08,21,08,05,17.80
2011,08,21,08,06,17.90
2011,08,21,08,07,18.00
2011,08,21,08,08,18.00
2011,08,21,08,09,18.10
2011,08,21,08,10,18.20
2011,08,21,08,11,18.20
2011,08,21,08,12,18.30
2011,08,21,08,13,18.30
2011,08,21,08,14,18.40
2011,08,21,08,15,18.40
2011,08,21,08,16,18.50
2011,08,21,08,17,18.60
2011,08,21,08,18,18.60
2011,08,21,08,19,18.70
2011,08,21,08,20,18.80
2011,08,21,08,21,18.90
2011,08,21,08,22,18.90
2011,08,21,08,23,19.00
2011,08,21,08,24,19.10
2011,08,21,08,25,19.10
2011,08,21,08,26,19.20
2011,08,21,08,27,19.30
2011,08,21,08,28,19.30
2011,08,21,08,29,19.40
2011,08,21,08,30,19.40
2011,08,21,08,31,19.50
2011,08,21,08,32,19.60
2011,08,21,08,33,19.60
2011,08,21,08,34,19.70
2011,08,21,08,35,19.70
2011,08,21,08,36,19.70
2011,08,21,08,37,19.70
2011,08,21,08,38,19.80
2011,08,21,08,39,19.80
2011,08,21,08,40,19.80
2011,08,21,08,41,19.80
2011,08,21,08,42,19.90
2011,08,21,08,43,19.90
2011,08,21,08,44,19.90
2011,08,21,08,45,20.00
2011,08,21,08,46,20.00
2011,08,21,08,47,20.00
2011,08,21,08,48,20.00
2011,08,21,08,49,20.10
2011,08,21,08,50,20.10
2011,08,21,08,51,20.20
2011,08,21,08,52,20.20
2011,08,21,08,53,20.30
2011,08,21,08,54,20.30
2011,08,21,08,55,20.40
2011,08,21,08,56,20.40
2011,08,21,08,57,20.40
2011,08,21,08,58,20.40
2011,08,21,08,59,20.40
2011,08,21,09,00,20.50
2011,08,21,09,01,20.50
2011,08,21,09,02,20.50
2011,08,21,09,03,20.50
2011,08,21,09,04,20.40
2011,08,21,09,05,20.30
2011,08,21,09,06,20.30
2011,08,21,09,07,20.30
2011,08,21,09,08,20.20
2011,08,21,09,09,20.20
2011,08,21,09,10,20.20
2011,08,21,09,11,20.20
2011,08,21,09,12,20.20
2011,08,21,09,13,20.20
2011,08,21,09,14,20.20
2011,08,21,09,15,20.20
2011,08,21,09,16,20.20
2011,08,21,09,17,20.20
2011,08,21,09,18,20.20
2011,08,21,09,19,20.20
2011,08,21,09,20,20.20
2011,08,21,09,21,20.20
2011,08,21,09,22,20.20
2011,08,21,09,23,20.20
2011,08,21,09,24,20.20
2011,08,21,09,25,20.30
2011,08,21,09,26,20.30
2011,08,21,09,27,20.30
2011,08,21,09,28,20.30
2011,08,21,09,29,20.30
2011,08,21,09,30,20.30
2011,08,21,09,31,20.30
2011,08,21,09,32,20.20
2011,08,21,09,33,20.20
2011,08,21,09,34,20.20
2011,08,21,09,35,20.20
2011,08,21,09,36,20.20
2011,08,21,09,37,20.20
2011,08,21,09,38,20.20
2011,08,21,09,39,20.20
2011,08,21,09,40,20.20
2011,08,21,09,41,20.20
2011,08,21,09,42,20.30
2011,08,21,09,43,20.20
2011,08,21,09,44,20.20
2011,08,21,09,45,20.20
2011,08,21,09,46,20.20
2011,08,21,09,47,20.20
2011,08,21,09,48,20.10
2011,08,21,09,49,20.10
2011,08,21,09,50,20.10
2011,08,21,09,51,20.10
2011,08,21,09,52,20.10
2011,08,21,09,53,20.10
2011,08,21,09,54,20.00
2011,08,21,09,55,20.00
2011,08,21,09,56,20.00
2011,08,21,09,57,20.00
2011,08,21,09,58,20.10
2011,08,21,09,59,20.10
2011,08,21,10,00,20.10
2011,08,21,10,01,20.10
2011,08,21,10,02,20.10
2011,08,21,10,03,20.20
2011,08,21,10,04,20.20
2011,08,21,10,05,20.20
2011,08,21,10,06,20.20
2011,08,21,10,07,20.10
2011,08,21,10,08,20.10
2011,08,21,10,09,20.10
2011,08,21,10,10,20.10
2011,08,21,10,11,20.10
2011,08,21,10,12,20.10
2011,08,21,10,13,20.20
2011,08,21,10,14,20.20
2011,08,21,10,15,20.30
2011,08,21,10,16,20.30
2011,08,21,10,17,20.30
2011,08,21,10,18,20.40
2011,08,21,10,19,20.40
2011,08,21,10,20,20.50
2011,08,21,10,21,20.50
2011,08,21,10,22,20.60
2011,08,21,10,23,20.60
2011,08,21,10,24,20.60
2011,08,21,10,25,20.60
2011,08,21,10,26,20.70
2011,08,21,10,27,20.70
2011,08,21,10,28,20.80
2011,08,21,10,29,20.80
2011,08,21,10,30,20.80
2011,08,21,10,31,20.80
2011,08,21,10,32,20.90
2011,08,21,10,33,20.90
2011,08,21,10,34,20.90
2011,08,21,10,35,20.90
2011,08,21,10,36,21.00
2011,08,21,10,37,21.00
2011,08,21,10,38,21.10
2011,08,21,10,39,21.10
2011,08,21,10,40,21.20
2011,08,21,10,41,21.20
2011,08,21,10,42,21.20
2011,08,21,10,43,21.20
2011,08,21,10,44,21.20
2011,08,21,10,45,21.10
2011,08,21,10,46,21.10
2011,08,21,10,47,21.10
2011,08,21,10,48,21.20
2011,08,21,10,49,21.20
2011,08,21,10,50,21.20
2011,08,21,10,51,21.20
2011,08,21,10,52,21.30
2011,08,21,10,53,21.30
2011,08,21,10,54,21.30
2011,08,21,10,55,21.30
2011,08,21,10,56,21.30
2011,08,21,10,57,21.30
2011,08,21,10,58,21.30
2011,08,21,10,59,21.30
2011,08,21,11,00,21.30
2011,08,21,11,01,21.30
2011,08,21,11,02,21.30
2011,08,21,11,03,21.30
2011,08,21,11,04,21.30
2011,08,21,11,05,21.30
2011,08,21,11,06,21.30
2011,08,21,11,07,21.40
2011,08,21,11,08,21.40
2011,08,21,11,09,21.50
2011,08,21,11,10,21.50
2011,08,21,11,11,21.50
2011,08,21,11,12,21.50
2011,08,21,11,13,21.50
2011,08,21,11,14,21.50
2011,08,21,11,15,21.50
2011,08,21,11,16,21.60
2011,08,21,11,17,21.60
2011,08,21,11,18,21.60
2011,08,21,11,19,21.70
2011,08,21,11,20,21.70
2011,08,21,11,21,21.70
2011,08,21,11,22,21.80
2011,08,21,11,23,21.80
2011,08,21,11,24,21.80
2011,08,21,11,25,21.80
2011,08,21,11,26,21.80
2011,08,21,11,27,21.90
2011,08,21,11,28,21.90
2011,08,21,11,29,21.90
2011,08,21,11,30,21.80
2011,08,21,11,31,21.80
2011,08,21,11,32,21.70
2011,08,21,11,33,21.60
2011,08,21,11,34,21.50
2011,08,21,11,35,21.40
2011,08,21,11,36,21.30
2011,08,21,11,37,21.30
2011,08,21,11,38,21.20
2011,08,21,11,39,21.10
2011,08,21,11,40,21.00
2011,08,21,11,41,20.90
2011,08,21,11,42,20.90
2011,08,21,11,43,20.80
2011,08,21,11,44,20.80
2011,08,21,11,45,20.80
2011,08,21,11,46,20.80
2011,08,21,11,47,20.80
2011,08,21,11,48,20.80
2011,08,21,11,49,20.80
2011,08,21,11,50,20.80
2011,08,21,11,51,20.80
2011,08,21,11,52,20.80
2011,08,21,11,53,20.70
2011,08,21,11,54,20.70
2011,08,21,11,55,20.70
2011,08,21,11,56,20.60
2011,08,21,11,57,20.60
2011,08,21,11,58,20.60
2011,08,21,11,59,20.60
2011,08,21,12,00,20.60
2011,08,21,12,01,20.60
2011,08,21,12,02,20.60
2011,08,21,12,03,20.60
2011,08,21,12,04,20.70
2011,08,21,12,05,20.70
2011,08,21,12,06,20.70
2011,08,21,12,07,20.70
2011,08,21,12,08,20.60
2011,08,21,12,09,20.60
2011,08,21,12,10,20.60
2011,08,21,12,11,20.60
2011,08,21,12,12,20.60
2011,08,21,12,13,20.60
2011,08,21,12,14,20.60
2011,08,21,12,15,20.60
2011,08,21,12,16,20.60
2011,08,21,12,17,20.60
2011,08,21,12,18,20.50
2011,08,21,12,19,20.50
2011,08,21,12,20,20.50
2011,08,21,12,21,20.50
2011,08,21,12,22,20.50
2011,08,21,12,23,20.50
2011,08,21,12,24,20.40
2011,08,21,12,25,20.40
2011,08,21,12,26,20.40
2011,08,21,12,27,20.40
2011,08,21,12,28,20.40
2011,08,21,12,29,20.50
2011,08,21,12,30,20.60
2011,08,21,12,31,20.60
2011,08,21,12,32,20.60
2011,08,21,12,33,20.50
2011,08,21,12,34,20.50
2011,08,21,12,35,20.40
2011,08,21,12,36,20.40
2011,08,21,12,37,20.30
2011,08,21,12,38,20.30
2011,08,21,12,39,20.30
2011,08,21,12,40,20.30
2011,08,21,12,41,20.40
2011,08,21,12,42,20.40
2011,08,21,12,43,20.40
2011,08,21,12,44,20.40
2011,08,21,12,45,20.40
2011,08,21,12,46,20.40
2011,08,21,12,47,20.50
2011,08,21,12,48,20.40
2011,08,21,12,49,20.50
2011,08,21,12,50,20.50
2011,08,21,12,51,20.50
2011,08,21,12,52,20.50
2011,08,21,12,53,20.60
2011,08,21,12,54,20.60
2011,08,21,12,55,20.60
2011,08,21,12,56,20.60
2011,08,21,12,57,20.60
2011,08,21,12,58,20.60
2011,08,21,12,59,20.60
2011,08,21,13,00,20.70
2011,08,21,13,01,20.70
2011,08,21,13,02,20.70
2011,08,21,13,03,20.70
2011,08,21,13,04,20.70
2011,08,21,13,05,20.60
2011,08,21,13,06,20.60
2011,08,21,13,07,20.60
2011,08,21,13,08,20.60
2011,08,21,13,09,20.60
2011,08,21,13,10,20.60
2011,08,21,13,11,20.60
2011,08,21,13,12,20.60
2011,08,21,13,13,20.60
2011,08,21,13,14,20.60
2011,08,21,13,15,20.60
2011,08,21,13,16,20.70
2011,08,21,13,17,20.70
2011,08,21,13,18,20.70
2011,08,21,13,19,20.60
2011,08,21,13,20,20.60
2011,08,21,13,21,20.60
2011,08,21,13,22,20.50
2011,08,21,13,23,20.50
2011,08,21,13,24,20.50
2011,08,21,13,25,20.40
2011,08,21,13,26,20.40
2011,08,21,13,27,20.40
2011,08,21,13,28,20.40
2011,08,21,13,29,20.40
2011,08,21,13,30,20.40
2011,08,21,13,31,20.40
2011,08,21,13,32,20.40
2011,08,21,13,33,20.40
2011,08,21,13,34,20.40
2011,08,21,13,35,20.40
2011,08,21,13,36,20.50
2011,08,21,13,37,20.50
2011,08,21,13,38,20.60
2011,08,21,13,39,20.60
2011,08,21,13,40,20.70
2011,08,21,13,41,20.80
2011,08,21,13,42,20.80
2011,08,21,13,43,20.90
2011,08,21,13,44,20.90
2011,08,21,13,45,21.00
2011,08,21,13,46,21.00
2011,08,21,13,47,21.10
2011,08,21,13,48,21.10
2011,08,21,13,49,21.10
2011,08,21,13,50,21.20
2011,08,21,13,51,21.20
2011,08,21,13,52,21.20
2011,08,21,13,53,21.20
2011,08,21,13,54,21.20
2011,08,21,13,55,21.30
2011,08,21,13,56,21.30
2011,08,21,13,57,21.30
2011,08,21,13,58,21.30
2011,08,21,13,59,21.40
2011,08,21,14,00,21.60
2011,08,21,14,01,21.60
2011,08,21,14,02,21.70
2011,08,21,14,03,21.80
2011,08,21,14,04,21.90
2011,08,21,14,05,22.00
2011,08,21,14,06,22.00
2011,08,21,14,07,22.00
2011,08,21,14,08,21.90
2011,08,21,14,09,21.90
2011,08,21,14,10,21.80
2011,08,21,14,11,21.80
2011,08,21,14,12,21.80
2011,08,21,14,13,21.80
2011,08,21,14,14,21.80
2011,08,21,14,15,21.80
2011,08,21,14,16,21.80
2011,08,21,14,17,21.90
2011,08,21,14,18,21.90
2011,08,21,14,19,21.90
2011,08,21,14,20,22.00
2011,08,21,14,21,22.10
2011,08,21,14,22,22.20
2011,08,21,14,23,22.40
2011,08,21,14,24,22.60
2011,08,21,14,25,22.80
2011,08,21,14,26,22.80
2011,08,21,14,27,22.80
2011,08,21,14,28,22.90
2011,08,21,14,29,23.00
2011,08,21,14,30,23.10
2011,08,21,14,31,23.10
2011,08,21,14,32,23.20
2011,08,21,14,33,23.20
2011,08,21,14,34,23.10
2011,08,21,14,35,23.10
2011,08,21,14,36,23.10
2011,08,21,14,37,23.10
2011,08,21,14,38,23.10
2011,08,21,14,39,23.10
2011,08,21,14,40,23.20
2011,08,21,14,41,23.30
2011,08,21,14,42,23.30
2011,08,21,14,43,23.30
2011,08,21,14,44,23.30
2011,08,21,14,45,23.20
2011,08,21,14,46,23.10
2011,08,21,14,47,23.10
2011,08,21,14,48,23.10
2011,08,21,14,49,23.10
2011,08,21,14,50,23.00
2011,08,21,14,51,23.00
2011,08,21,14,52,22.90
2011,08,21,14,53,22.90
2011,08,21,14,54,22.90
2011,08,21,14,55,22.90
2011,08,21,14,56,22.90
2011,08,21,14,57,22.80
2011,08,21,14,58,22.70
2011,08,21,14,59,22.60
2011,08,21,15,00,22.40
2011,08,21,15,01,22.20
2011,08,21,15,02,21.90
2011,08,21,15,03,21.70
2011,08,21,15,04,21.60
2011,08,21,15,05,21.50
2011,08,21,15,06,21.40
2011,08,21,15,07,21.40
2011,08,21,15,08,21.40
2011,08,21,15,09,21.30
2011,08,21,15,10,21.30
2011,08,21,15,11,21.30
2011,08,21,15,12,21.20
2011,08,21,15,13,21.20
2011,08,21,15,14,21.20
2011,08,21,15,15,21.20
2011,08,21,15,16,21.20
2011,08,21,15,17,21.30
2011,08,21,15,18,21.30
2011,08,21,15,19,21.30
2011,08,21,15,20,21.30
2011,08,21,15,21,21.30
2011,08,21,15,22,21.30
2011,08,21,15,23,21.30
2011,08,21,15,24,21.20
2011,08,21,15,25,21.20
2011,08,21,15,26,21.20
2011,08,21,15,27,21.30
2011,08,21,15,28,21.30
2011,08,21,15,29,21.40
2011,08,21,15,30,21.40
2011,08,21,15,31,21.50
2011,08,21,15,32,21.60
2011,08,21,15,33,21.70
2011,08,21,15,34,21.80
2011,08,21,15,35,21.80
2011,08,21,15,36,21.90
2011,08,21,15,37,21.90
2011,08,21,15,38,22.00
2011,08,21,15,39,22.10
2011,08,21,15,40,22.10
2011,08,21,15,41,22.20
2011,08,21,15,42,22.20
2011,08,21,15,43,22.40
2011,08,21,15,44,22.40
2011,08,21,15,45,22.40
2011,08,21,15,46,22.40
2011,08,21,15,47,22.40
2011,08,21,15,48,22.50
2011,08,21,15,49,22.60
2011,08,21,15,50,22.70
2011,08,21,15,51,22.80
2011,08,21,15,52,22.80
2011,08,21,15,53,22.90
2011,08,21,15,54,23.00
2011,08,21,15,55,23.00
2011,08,21,15,56,23.10
2011,08,21,15,57,23.10
2011,08,21,15,58,23.20
2011,08,21,15,59,23.20
2011,08,21,16,00,23.20
2011,08,21,16,01,23.20
2011,08,21,16,02,23.20
2011,08,21,16,03,23.20
2011,08,21,16,04,23.20
2011,08,21,16,05,23.30
2011,08,21,16,06,23.30
2011,08,21,16,07,23.30
2011,08,21,16,08,23.30
2011,08,21,16,09,23.30
2011,08,21,16,10,23.20
2011,08,21,16,11,23.20
2011,08,21,16,12,23.10
2011,08,21,16,13,23.10
2011,08,21,16,14,23.00
2011,08,21,16,15,22.90
2011,08,21,16,16,22.80
2011,08,21,16,17,22.80
2011,08,21,16,18,22.70
2011,08,21,16,19,22.60
2011,08,21,16,20,22.60
2011,08,21,16,21,22.50
2011,08,21,16,22,22.50
2011,08,21,16,23,22.40
2011,08,21,16,24,22.30
2011,08,21,16,25,22.30
2011,08,21,16,26,22.30
2011,08,21,16,27,22.30
2011,08,21,16,28,22.30
2011,08,21,16,29,22.30
2011,08,21,16,30,22.40
2011,08,21,16,31,22.40
2011,08,21,16,32,22.40
2011,08,21,16,33,22.30
2011,08,21,16,34,22.30
2011,08,21,16,35,22.30
2011,08,21,16,36,22.30
2011,08,21,16,37,22.30
2011,08,21,16,38,22.30
2011,08,21,16,39,22.30
2011,08,21,16,40,22.20
2011,08,21,16,41,22.10
2011,08,21,16,42,22.00
2011,08,21,16,43,21.90
2011,08,21,16,44,21.80
2011,08,21,16,45,21.80
2011,08,21,16,46,21.80
2011,08,21,16,47,21.90
2011,08,21,16,48,21.90
2011,08,21,16,49,21.90
2011,08,21,16,50,21.90
2011,08,21,16,51,22.00
2011,08,21,16,52,22.00
2011,08,21,16,53,21.90
2011,08,21,16,54,21.90
2011,08,21,16,55,21.90
2011,08,21,16,56,21.90
2011,08,21,16,57,21.90
2011,08,21,16,58,21.90
2011,08,21,16,59,21.90
2011,08,21,17,00,22.00
2011,08,21,17,01,22.00
2011,08,21,17,02,22.10
2011,08,21,17,03,22.10
2011,08,21,17,04,22.20
2011,08,21,17,05,22.30
2011,08,21,17,06,22.40
2011,08,21,17,07,22.50
2011,08,21,17,08,22.50
2011,08,21,17,09,22.60
2011,08,21,17,10,22.50
2011,08,21,17,11,22.40
2011,08,21,17,12,22.40
2011,08,21,17,13,22.30
2011,08,21,17,14,22.20
2011,08,21,17,15,22.10
2011,08,21,17,16,22.00
2011,08,21,17,17,21.90
2011,08,21,17,18,21.80
2011,08,21,17,19,21.70